Content
SEND FEEDBACK

Daily
Averages
Monthly
Summary
United States of America

RAHWAY, NEW JERSEY


Home > North America > United States > New Jersey
Elevation: 20 feet     Latitude: 40 36N     Longitude: 074 16W

WEATHER
 
SELECT A DAY
Number of Records: 189,762;   Date Range: 1/1/95 - 8/28/14
 
SHARE

PRINT THIS DATA

[ ← Previous Day ]
WEATHER ALMANAC - MARCH 29, 2013
[ Next Day → ]
[ °C ]   °F
Weather ElementAverageHighLow
Temperature47.4 °F55.9 °F (1:51 pm)39.9 °F (4:51 am)
Dewpoint26.4 °F28.9 °F (2:51 am)23 °F (2:51 pm)
Humidity45.6 %63 % (4:51 am)29 % (1:51 pm)
Barometer30.12 in30.15 in (7:51 am)30.06 in (2:51 pm)
Wind Speed8.8 mph18.4 mph (6:51 pm)
Wind Gust25.3 mph (3:51 pm)
Weather ElementAverage
Visibility10 mi
Wind DirectionWNW (279.6 °)

Weather ElementTotal
Precipitation---
Heating Degree Days17.1 (Base 65)
Averaged from 23 records on March 29, 2013
WEATHER CONDITIONS BREAKOUT
WIND DIRECTION BREAKOUT
WEATHER BY HOUR - MARCH 29, 2013
[ °C ]   °F
Local TimeTemperatureDewpointHumidityBarometerVisibilityWind DirectionWind SpeedGust SpeedPrecipitationEventsConditions
1:51 AM42.1 °F28.0 °F58 %30.13 in10.0 miWNW (300°)5.8 mphMostly Cloudy
2:51 AM41.0 °F28.9 °F62 %30.12 in10.0 miWest (270°)5.8 mphMostly Cloudy
3:51 AM41.0 °F28.9 °F62 %30.13 in10.0 miWest (270°)3.5 mphMostly Cloudy
4:51 AM39.9 °F28.0 °F63 %30.13 in10.0 miWSW (250°)3.5 mphPartly Cloudy
5:51 AM41.0 °F28.0 °F60 %30.13 in10.0 miCalmPartly Cloudy
6:51 AM39.9 °F28.0 °F63 %30.14 in10.0 miWSW (250°)5.8 mphPartly Cloudy
7:51 AM42.1 °F28.0 °F58 %30.15 in10.0 miWest (270°)3.5 mphPartly Cloudy
8:51 AM46.0 °F28.0 °F50 %30.15 in10.0 miNW (320°)9.2 mphPartly Cloudy
9:51 AM48.0 °F27.0 °F44 %30.15 in10.0 miNW (310°)10.4 mphClear
10:51 AM51.1 °F26.1 °F38 %30.14 in10.0 miNW (310°)5.8 mphScattered Clouds
11:51 AM53.1 °F25.0 °F34 %30.13 in10.0 miWest (260°)10.4 mph18.4 mphScattered Clouds
12:51 PM54.0 °F24.1 °F31 %30.10 in10.0 miWSW (240°)10.4 mph19.6 mphMostly Cloudy
1:51 PM55.9 °F24.1 °F29 %30.08 in10.0 miWest (270°)9.2 mph17.3 mphMostly Cloudy
2:51 PM54.0 °F23.0 °F30 %30.06 in10.0 miWest (260°)12.7 mph18.4 mphMostly Cloudy
3:51 PM54.0 °F23.0 °F30 %30.06 in10.0 miNW (310°)16.1 mph25.3 mphMostly Cloudy
4:51 PM52.0 °F27.0 °F38 %30.07 in10.0 miWNW (300°)16.1 mph23.0 mphMostly Cloudy
5:51 PM51.1 °F25.0 °F36 %30.08 in10.0 miNW (310°)13.8 mph24.2 mphMostly Cloudy
6:51 PM50.0 °F25.0 °F38 %30.09 in10.0 miNNW (330°)18.4 mph24.2 mphMostly Cloudy
7:51 PM48.9 °F25.0 °F39 %30.10 in10.0 miNW (310°)11.5 mph18.4 mphScattered Clouds
8:51 PM48.2 °F26.6 °F43 %30.12 in10.0 miNW (320°)8.1 mphScattered Clouds
9:51 PM46.9 °F26.1 °F44 %30.13 in10.0 miNNW (340°)9.2 mphPartly Cloudy
10:51 PM46.0 °F27.0 °F47 %30.14 in10.0 miNW (320°)8.1 mphPartly Cloudy
11:51 PM44.1 °F27.0 °F51 %30.14 in10.0 miNW (310°)5.8 mphPartly Cloudy
Hourly data recorded from KEWR, located miles away from Rahway, New Jersey







STORIES FROM OUR PARTNERS